sat.trackr.live / text

‹ back to catalog

STARLINK-5310

NORAD 55272 · 2023-010D

PAYLOAD ACTIVE UNKNOWN

§ Identity

Operator
Country
US
Launch date
2023-01-19
Launch site
AFWTR
Launch vehicle
Mass (kg)
RCS (m²)

Purposes: comms

External: N2YO · Heavens-Above · Gunter

§ Orbital elements

Epoch: 2026-05-24T21:58:17.625792Z

Period
96.11 min
Inclination
69.9994°
Eccentricity
0.0003560
Mean motion
14.98329978 rev/d
Perigee alt
569.6 km
Apogee alt
574.5 km
Semi-major
6,950.2 km
B*
-1.6956e-4
RAAN
212.2719°
Arg perigee
270.9445°
Mean anomaly
89.1306°
Rev number
18,420

§ Raw data

STARLINK-53101 55272U 23010D   26144.91548178 -.00002116  00000+0 -16956-3 0  99982 55272  69.9994 212.2719 0003560 270.9445  89.1306 14.98329978184200

JSON: /api/v1/satellites/55272 · /tle

For live sub-satellite position, see the globe view (requires WebGL).

§ Visibility from observer

Set your observer location to see the next 7 days of passes ≥ 10°. The values pass through the URL so the page stays shareable.

No JS? Fill the form by hand. The geolocation button needs JavaScript.